Theta_e
302 302 302 302 302 303 303 302 302 302 305 305 305 305 305 306 306 307 307 307 307 307 307 307 306 307 306 306 306 306 306 307 307 305 304 304 306 307 308 310 311 311 312 313 313 312 311 310 310 311 313 311 310 313 312 309 311 318 320 318 319 319 318 318 318 317 313 309 307 306 305 305 305 303 302 301 301 301 301 301 300 299 298 299 299 298 297 296
302 302 302 302 302 302 302 302 301 303 305 306 306 306 306 306 306 307 307 307 308 308 308 307 307 306 306 306 305 306 307 306 306 304 304 305 306 308 310 311 311 312 311 312 311 311 311 309 308 309 311 310 310 312 312 311 310 314 318 315 315 315 312 312 313 312 310 308 306 304 304 305 305 304 302 301 300 300 301 302 302 301 299 299 298 298 297 296
302 302 303 303 302 302 302 302 303 304 305 306 306 306 306 306 306 306 306 307 307 308 309 308 307 307 306 306 305 306 307 306 305 304 304 306 307 308 309 311 311 312 312 311 310 309 310 309 307 308 309 308 308 310 310 313 312 311 313 313 311 310 308 308 308 308 307 305 304 303 302 302 302 302 302 300 299 299 300 301 302 302 301 300 299 298 298 297
301 302 303 303 304 303 304 304 304 305 305 306 306 306 307 306 307 307 307 307 307 308 308 307 307 307 306 306 306 306 307 308 305 303 304 305 307 308 309 310 310 312 312 311 310 309 308 307 307 307 308 308 307 308 308 310 312 310 309 311 310 308 307 306 305 304 303 302 302 302 301 300 299 299 299 301 302 300 298 299 300 301 301 301 300 298 298 298
301 302 302 303 303 304 304 305 305 305 305 306 306 306 306 307 307 307 307 307 307 307 307 307 306 306 306 306 306 305 310 313 305 303 305 306 306 307 309 310 310 311 311 311 310 309 308 306 306 308 308 307 308 308 307 306 308 307 306 308 308 307 307 306 304 304 303 302 302 301 301 300 298 297 297 300 303 300 298 298 298 300 301 301 299 297 298 297
302 301 302 302 303 304 305 305 305 306 306 306 306 305 306 307 307 307 307 308 308 307 307 307 306 306 306 306 306 305 310 310 304 303 305 305 307 307 308 310 310 311 311 310 309 307 307 306 307 308 306 305 306 306 306 305 306 307 305 305 306 306 306 305 304 303 303 303 302 301 300 298 297 297 296 297 298 298 297 296 296 297 298 298 297 296 297 296
302 302 302 302 302 303 304 305 306 306 306 306 306 306 306 307 308 307 307 308 308 308 308 308 308 308 306 306 306 305 306 305 303 304 305 306 307 307 308 309 310 311 310 308 307 307 307 306 306 306 306 306 305 305 305 305 305 305 304 303 303 303 302 301 301 300 301 301 300 299 298 298 298 297 296 296 296 296 296 295 296 296 296 296 295 295 295 295
302 302 302 302 303 303 305 305 305 306 306 306 305 306 306 307 308 307 307 308 308 309 308 308 309 309 308 308 306 306 304 304 304 304 304 306 307 307 308 308 309 310 309 307 306 306 307 307 307 307 307 307 305 305 305 305 304 304 304 303 302 301 300 299 299 299 299 299 298 298 299 298 298 298 298 297 298 297 296 296 296 295 295 295 295 295 295 295
302 302 302 304 304 305 305 305 305 305 305 305 305 306 306 307 307 308 307 307 308 308 308 308 309 309 309 308 308 307 305 304 305 305 304 306 307 307 307 307 308 308 307 306 306 307 307 308 308 308 307 306 306 306 306 307 306 304 304 303 302 301 300 300 300 300 299 298 298 299 298 298 297 299 299 298 299 297 295 296 295 295 296 295 295 296 295 295
302 302 303 304 304 305 305 305 305 305 305 306 306 306 307 307 308 308 308 307 307 307 307 307 308 309 308 306 308 307 305 304 305 304 305 306 307 307 307 307 307 307 306 305 305 306 306 306 305 304 304 304 305 305 306 307 305 303 303 303 302 302 302 302 301 301 301 299 299 300 299 299 298 300 300 299 299 297 297 298 296 296 298 297 295 295 296 296
302 302 304 304 304 304 304 305 305 306 306 306 306 308 308 308 309 308 308 308 308 307 308 307 308 308 306 305 307 307 305 305 305 304 305 306 307 308 308 308 307 306 305 304 304 304 305 304 303 304 305 304 303 304 304 304 303 302 302 302 302 302 302 302 302 302 302 300 299 300 300 300 300 301 299 299 300 298 298 299 298 298 299 298 295 294 296 296
302 303 304 303 304 304 305 305 306 306 306 306 307 307 307 309 309 309 309 309 308 308 309 310 310 308 306 305 306 306 305 305 305 304 305 306 307 307 308 310 308 306 305 304 303 304 305 304 305 307 305 303 302 303 302 301 301 301 301 301 301 302 302 302 303 302 302 301 299 301 304 303 302 300 299 301 301 299 299 299 299 299 299 299 296 294 295 296
302 304 304 304 305 306 306 306 307 307 306 306 307 306 306 307 309 310 310 310 309 308 308 309 310 308 308 307 305 305 305 305 305 305 306 306 307 308 309 310 308 306 305 304 303 304 305 304 304 305 303 302 302 303 301 300 302 302 301 302 304 305 304 302 302 302 302 302 300 302 305 304 303 301 300 301 300 299 299 299 299 300 299 299 298 296 295 295
303 304 305 305 307 307 307 307 307 307 307 307 307 307 307 306 308 309 309 310 309 309 309 309 310 308 308 307 305 305 305 305 305 306 307 307 308 309 309 310 308 306 305 305 304 304 304 304 303 302 302 302 302 302 301 302 304 303 303 305 308 308 304 303 303 303 303 301 302 304 306 305 305 303 301 301 298 297 299 299 300 300 300 299 299 299 297 296
303 305 305 306 307 306 306 306 305 306 307 307 307 307 307 307 307 308 310 309 309 310 309 310 311 311 311 308 305 305 306 306 306 305 306 308 308 309 310 309 308 308 307 306 305 305 304 303 303 302 303 302 303 304 304 308 308 304 306 310 309 307 304 304 303 302 302 301 301 304 305 304 304 302 301 300 298 298 299 299 300 299 299 299 298 299 299 296
304 305 306 306 307 306 305 306 306 305 305 307 308 307 308 308 307 309 310 309 310 309 308 309 308 309 312 308 305 306 306 306 306 305 306 307 308 309 310 309 308 308 307 306 305 305 304 304 304 303 304 305 305 307 308 311 311 306 307 309 307 306 304 304 303 301 301 302 301 302 304 302 301 301 300 300 298 299 300 299 300 300 299 299 299 300 300 298
304 305 306 306 307 306 306 306 306 305 305 306 308 308 308 308 307 308 309 310 312 310 309 308 305 309 310 306 307 308 305 305 305 306 307 307 308 308 308 309 309 306 306 306 305 305 304 306 308 304 304 303 301 309 315 311 310 307 306 306 304 305 305 304 304 302 301 302 301 302 303 302 300 300 300 300 299 299 300 299 300 300 299 299 299 299 299 300
304 305 306 306 306 306 306 306 305 306 305 305 307 309 309 309 309 309 309 311 311 310 310 307 307 314 311 306 307 306 305 305 305 306 307 308 309 308 308 307 306 308 313 310 305 307 305 306 308 304 303 301 299 308 315 310 309 308 308 307 303 303 305 304 303 302 301 302 302 302 302 300 300 300 300 301 299 299 300 300 300 299 299 299 299 300 299 301
304 305 305 305 306 306 305 306 305 306 305 305 306 309 311 310 309 309 307 307 309 311 311 307 308 314 309 306 305 305 306 305 306 306 306 308 309 308 306 305 306 311 318 313 307 308 306 305 306 304 304 303 300 302 305 306 307 307 309 310 306 304 303 303 303 301 302 303 303 303 303 300 300 300 300 301 300 299 300 300 300 300 300 300 300 300 300 302
305 304 305 306 306 306 306 305 305 305 305 306 307 311 317 316 313 310 307 307 307 306 307 306 308 311 308 306 304 306 307 306 306 306 306 307 308 309 306 307 310 308 311 312 308 308 306 304 305 303 302 302 301 300 301 303 304 304 307 306 305 306 303 301 303 302 301 304 302 302 303 301 301 300 300 301 300 300 301 300 301 300 300 301 301 300 301 302
305 304 305 306 306 305 305 305 307 308 310 310 311 315 319 320 317 312 309 309 306 304 306 306 306 308 306 306 305 305 307 308 306 305 306 305 307 310 308 309 314 308 307 311 310 307 305 304 303 302 301 301 301 301 302 304 304 304 305 305 305 306 305 301 303 303 301 303 302 300 302 302 302 301 301 301 300 301 302 301 301 301 301 302 301 302 303 302
305 305 305 305 306 306 304 306 309 311 313 313 312 311 309 309 311 309 309 311 306 304 306 305 306 307 305 305 305 304 306 310 309 306 306 306 308 310 306 307 310 306 306 313 314 307 305 305 304 301 300 301 301 301 303 306 306 307 307 311 309 305 304 303 305 306 302 303 303 300 302 303 302 301 301 301 301 303 304 302 302 303 302 303 303 303 304 303
304 305 305 305 306 306 304 306 310 311 312 311 310 307 306 307 308 308 310 313 309 305 306 308 309 309 308 307 306 306 306 307 309 307 305 309 311 310 307 305 305 304 304 311 312 306 307 305 302 302 303 306 305 302 304 306 306 307 310 313 309 303 304 305 305 306 303 302 302 304 305 304 302 301 300 301 301 302 304 303 303 303 302 302 303 302 302 303
303 304 305 306 306 307 307 307 309 311 310 310 309 307 308 308 309 309 311 316 313 307 306 306 306 308 308 306 306 307 308 306 308 307 305 309 311 310 310 306 305 306 303 305 306 305 306 301 300 305 306 307 308 305 306 308 307 306 307 309 306 302 303 304 304 306 306 303 304 308 310 309 306 303 302 303 301 300 301 302 301 302 302 301 302 301 302 302
303 303 305 306 306 307 307 308 309 308 308 308 308 307 307 306 306 308 316 325 318 308 307 305 304 307 305 305 306 306 308 308 306 305 304 306 309 310 310 308 308 308 304 304 305 305 303 299 302 309 307 305 308 306 303 306 310 307 303 304 303 303 304 306 308 308 308 306 304 304 306 311 311 307 306 305 302 300 300 301 301 301 301 300 301 301 302 302
302 303 304 305 306 308 308 309 307 306 307 306 305 306 305 305 306 307 320 334 321 308 310 309 306 308 306 306 305 305 311 312 304 303 305 305 305 308 311 311 310 309 305 305 305 304 303 302 304 308 307 305 305 305 300 304 315 309 300 302 303 304 306 309 309 306 307 307 302 300 301 308 312 309 309 306 302 302 302 302 303 303 302 301 302 302 302 303
302 302 303 304 306 308 310 310 306 307 309 305 304 305 302 304 306 304 320 335 320 308 310 311 308 308 307 305 304 308 313 309 304 304 304 303 303 306 313 314 312 310 304 306 308 304 303 306 306 305 306 305 304 305 300 302 313 307 301 303 304 305 307 307 307 306 306 305 304 304 303 305 313 313 310 305 301 303 305 303 302 302 302 302 303 303 303 304
302 302 303 304 305 306 308 308 306 308 309 305 303 304 303 305 304 307 325 329 314 308 309 310 309 307 307 305 305 310 310 306 308 306 302 303 303 304 309 309 308 307 302 309 312 302 301 305 304 304 306 305 304 303 300 302 306 303 301 303 302 304 305 305 308 310 308 305 307 310 303 304 317 318 309 303 300 303 307 304 301 300 300 301 302 302 304 305
302 302 303 303 304 305 305 305 305 306 307 304 303 304 303 304 306 318 332 320 309 309 307 308 308 307 310 311 310 311 308 307 309 306 302 303 302 303 305 304 304 305 301 308 311 302 300 303 301 303 305 303 303 304 302 302 303 301 300 303 304 306 307 306 307 310 311 309 310 309 301 301 315 317 307 302 300 304 307 304 301 301 301 301 302 303 305 306
302 303 303 303 304 305 305 304 303 304 305 303 304 303 301 308 324 334 328 314 308 308 307 308 307 308 314 317 314 310 309 309 309 308 305 303 303 304 304 303 305 307 306 306 307 304 302 302 301 302 302 300 301 302 301 300 301 301 303 307 309 309 310 309 308 309 311 314 314 308 301 299 308 316 309 303 303 306 306 302 301 302 302 302 305 307 305 305
303 302 303 303 303 305 306 303 301 302 303 303 302 304 305 317 338 337 316 308 309 310 310 309 309 311 314 314 311 309 312 312 309 311 310 304 304 306 305 306 309 315 318 313 308 306 306 306 303 301 302 300 300 301 300 301 302 303 306 308 307 310 311 312 316 313 310 315 314 306 301 298 304 315 313 306 305 306 304 302 302 303 304 304 306 307 305 304
303 303 302 303 302 304 304 303 303 301 301 301 302 311 322 325 327 321 311 309 309 311 310 306 307 310 310 312 309 306 310 311 308 309 308 305 304 302 303 306 307 313 319 314 311 311 307 305 303 301 300 298 301 304 304 303 304 306 311 311 312 318 314 314 322 314 308 313 307 300 301 300 304 312 312 308 305 304 304 303 304 304 304 305 304 305 305 304
303 303 302 303 302 303 303 303 303 301 300 303 309 323 339 331 317 310 310 312 307 306 306 305 307 308 309 314 310 306 308 307 306 305 303 305 306 302 301 301 300 308 314 311 312 318 312 306 305 304 301 299 302 306 306 305 305 308 311 312 319 322 313 314 318 309 308 314 304 297 301 304 307 308 307 307 304 302 303 303 304 305 304 304 303 303 305 305
303 304 302 303 302 302 303 302 302 302 302 308 321 334 334 321 311 308 309 310 305 306 307 306 308 308 308 310 305 306 310 306 305 306 306 311 313 309 306 303 300 305 313 312 310 315 316 311 307 303 301 301 301 300 302 302 304 306 304 306 314 314 310 312 312 308 309 312 306 300 302 310 309 303 303 304 302 301 302 302 303 304 303 303 303 305 307 306
305 305 302 303 303 302 303 302 301 303 305 314 330 337 326 313 311 313 312 308 306 308 308 306 312 313 311 309 305 305 307 305 306 309 310 312 310 307 305 304 301 302 309 312 308 308 312 308 305 302 299 299 299 298 298 301 304 304 303 309 310 308 312 310 305 307 304 305 310 306 303 309 305 300 301 301 301 301 302 303 302 301 302 304 304 305 308 307
304 305 303 302 303 303 303 302 302 304 309 325 336 325 316 309 309 314 313 307 307 308 307 309 315 315 312 310 309 308 305 303 308 312 309 306 304 303 304 303 301 300 304 309 308 308 312 308 304 304 300 297 298 298 297 300 303 304 306 308 302 301 311 310 301 302 301 303 312 307 304 308 304 302 302 300 301 302 302 304 302 302 304 305 304 305 308 307
303 305 303 301 304 305 302 303 304 304 310 332 336 314 306 303 304 309 309 305 305 306 310 312 309 309 311 311 310 311 308 303 308 315 311 304 304 303 303 303 300 298 300 303 304 304 311 313 305 303 302 299 297 297 298 298 299 305 309 303 298 299 307 309 306 309 308 309 313 308 306 308 306 306 304 299 300 302 303 305 304 304 305 303 305 307 308 307
304 307 305 302 304 305 304 305 305 307 317 329 325 310 304 302 300 303 305 304 304 306 312 314 306 304 310 313 309 306 307 308 311 315 310 307 307 301 300 302 299 299 299 300 303 300 305 314 308 302 302 301 299 301 303 301 297 300 302 299 300 304 306 307 308 312 311 308 312 312 307 304 305 307 305 301 302 303 304 305 303 303 303 303 306 306 307 306
305 312 310 303 303 305 306 305 303 314 332 331 321 311 305 304 302 302 302 302 302 305 309 310 305 304 306 309 309 304 305 308 309 311 309 307 307 300 297 299 299 302 301 299 302 300 301 310 311 305 300 300 304 306 305 306 303 303 304 301 303 306 306 306 304 307 310 308 310 312 312 311 310 309 307 304 304 305 305 304 304 304 304 304 305 304 306 306
303 315 312 302 304 305 304 305 306 321 332 320 313 309 303 305 305 301 301 301 301 304 307 307 306 306 306 305 305 303 305 308 306 307 308 305 304 302 298 298 300 302 301 300 302 300 300 306 310 311 305 302 306 305 302 304 304 306 308 305 305 304 303 304 301 303 309 309 309 309 313 318 313 306 306 305 304 305 305 303 304 305 305 306 305 304 306 305
306 319 312 303 305 304 305 310 311 314 317 308 306 306 303 305 304 302 301 300 299 300 302 307 307 307 308 306 303 303 306 310 307 305 305 304 304 304 299 296 298 299 300 302 303 300 301 305 308 313 312 309 306 299 296 297 298 300 302 302 304 303 305 309 306 303 304 305 309 308 309 315 310 302 303 305 305 306 306 304 304 304 305 305 305 305 304 304
314 318 308 304 305 302 311 319 308 305 313 308 303 303 304 305 302 301 301 298 298 299 300 304 306 306 307 305 304 305 307 309 307 304 304 303 304 303 298 295 297 297 298 301 300 297 300 306 310 313 309 304 300 295 294 295 294 295 296 297 300 301 307 312 309 307 302 299 303 304 305 312 310 303 304 305 305 305 304 303 303 303 302 302 303 305 304 303
318 312 304 305 304 303 318 323 308 305 308 301 298 299 301 303 302 301 300 299 300 300 301 303 303 303 304 302 303 306 305 305 304 302 303 304 302 299 296 296 297 297 298 300 300 297 299 304 309 316 314 305 298 294 292 292 293 297 298 297 298 300 304 307 306 306 304 301 303 302 306 315 312 305 305 304 303 304 302 301 301 301 301 302 305 306 305 306
317 308 306 306 301 309 328 326 316 311 303 298 300 300 298 300 302 302 302 303 302 301 303 304 301 301 302 302 304 303 301 303 303 299 301 304 301 296 296 297 297 298 299 301 300 297 300 305 308 317 324 319 312 306 302 298 297 300 302 299 298 299 301 303 302 302 303 305 305 306 313 318 309 306 307 304 303 305 304 302 300 299 301 304 307 307 306 306
314 308 311 310 302 307 320 319 319 317 306 302 303 301 300 300 299 301 302 302 301 301 304 303 301 302 302 301 303 300 298 302 302 300 300 302 300 296 296 297 297 298 299 299 297 297 301 304 306 315 324 325 324 319 312 307 303 303 301 298 298 299 300 303 303 303 307 306 302 306 316 315 306 304 305 303 304 305 303 301 299 298 299 301 303 305 306 305
313 311 317 320 310 308 308 304 309 314 309 310 307 301 303 304 300 298 299 300 300 300 302 301 300 303 302 301 305 303 299 298 300 302 303 304 302 298 296 296 297 298 299 298 296 297 302 302 302 311 320 321 321 315 307 304 304 304 303 300 300 299 299 303 305 306 309 306 302 305 309 307 305 304 302 302 304 303 301 300 299 299 299 300 301 302 304 303
311 311 309 314 317 317 311 305 309 314 312 315 310 303 305 306 300 298 297 298 300 300 301 300 299 303 304 303 307 307 301 300 301 302 303 303 300 297 294 295 296 297 298 298 296 298 303 304 300 303 308 309 309 307 303 302 303 304 304 303 302 299 298 301 304 306 306 305 308 307 302 301 305 304 302 303 301 300 300 299 299 300 299 299 299 300 302 303
307 307 301 301 310 315 310 307 312 314 311 311 309 304 307 307 303 303 300 297 299 299 300 302 301 304 307 306 308 308 303 304 304 301 301 301 298 297 297 295 295 296 296 297 296 298 304 304 299 299 305 306 302 299 300 300 301 301 302 302 302 300 299 300 301 302 302 303 307 306 301 301 303 301 301 301 299 300 300 299 299 299 299 299 300 301 304 305
303 305 299 298 306 309 305 304 308 313 312 313 312 306 308 311 307 305 301 298 300 299 299 304 305 307 308 307 310 312 307 306 307 304 303 303 299 300 302 300 297 294 294 297 296 295 301 305 301 297 303 307 302 297 297 298 300 301 300 300 300 300 299 299 299 299 300 302 302 301 300 300 299 299 299 299 299 298 298 298 299 300 301 302 303 304 306 305
306 306 303 305 310 306 304 304 310 318 312 309 313 307 306 312 309 304 300 301 305 302 300 307 309 306 307 308 310 312 307 308 310 307 306 305 302 302 304 304 301 295 294 297 296 293 297 304 302 298 304 311 303 297 297 299 301 303 301 298 298 299 298 297 297 297 298 299 299 298 299 299 297 298 299 299 299 299 300 302 302 302 303 303 305 306 305 304
303 301 303 316 315 304 305 307 309 317 311 308 313 308 305 310 310 306 302 300 304 304 303 309 310 304 304 307 309 307 304 307 309 306 305 305 303 303 302 301 303 302 298 296 296 295 297 301 301 299 308 315 305 299 301 300 298 301 304 302 298 297 300 299 297 297 298 299 299 299 301 301 300 300 300 302 303 303 305 306 304 303 304 303 305 305 303 302
301 297 301 320 319 302 304 308 305 308 312 314 312 307 306 311 309 307 305 301 299 300 300 304 308 307 306 305 305 304 302 302 301 299 298 298 298 300 299 299 301 303 302 298 297 297 298 303 303 301 310 317 307 301 302 302 305 310 312 313 306 299 299 299 297 297 297 297 300 301 302 303 303 302 302 305 307 306 305 304 302 302 302 302 303 302 301 301
Wind_Speed
15 18 18 16 13 11 10 9 9 9 11 13 14 13 12 13 14 13 9 4 2 6 9 11 10 8 6 5 5 11 27 37 39 41 34 30 37 32 30 27 23 21 15 14 14 13 17 18 16 19 17 13 7 4 7 8 6 5 4 5 4 3 1 2 4 4 6 6 4 3 3 10 7 1 3 4 9 7 6 5 4 6 5 3 3 3 2 2
13 17 18 17 15 13 11 10 10 9 10 12 15 14 11 11 12 14 14 12 8 3 10 14 14 12 9 7 5 3 16 32 40 38 35 38 37 30 30 27 23 18 15 18 17 17 14 8 15 22 11 5 6 6 6 6 6 6 4 6 4 2 2 2 6 6 6 7 6 5 3 6 6 2 2 4 5 5 6 5 4 5 4 2 1 1 1 0
12 14 17 17 15 13 11 10 9 9 9 12 15 15 13 10 8 8 8 12 15 9 4 13 15 15 12 10 7 3 4 22 32 27 36 41 34 29 28 24 20 16 17 23 23 24 19 11 22 22 9 7 6 6 8 5 4 5 4 7 4 4 6 7 9 8 7 9 9 6 5 7 4 2 3 5 5 7 6 3 3 4 2 3 2 2 1 2
11 12 13 15 15 13 11 9 9 8 8 10 12 13 13 11 10 8 5 6 15 19 10 4 10 12 11 10 6 4 3 12 16 20 35 38 31 27 25 23 20 16 16 22 23 26 26 24 26 17 9 9 6 9 10 6 4 4 4 6 4 7 9 7 9 10 8 9 9 7 8 8 4 5 3 4 6 6 3 1 1 3 2 3 5 3 3 5
11 11 10 12 14 13 11 9 9 8 7 9 11 13 12 11 12 11 7 3 10 25 28 18 10 7 6 7 9 6 1 7 8 25 35 33 30 25 23 23 20 14 15 20 20 23 25 21 18 11 7 5 6 9 7 6 5 4 5 7 5 8 9 5 7 9 7 8 9 7 8 5 2 5 5 4 6 0 3 2 4 5 5 5 4 3 4 5
11 11 10 10 12 13 10 9 10 8 8 11 13 15 13 11 12 13 10 2 4 13 22 24 23 23 19 12 12 10 8 4 11 27 31 29 28 23 22 23 19 14 16 21 22 24 20 15 14 9 6 7 9 9 6 7 5 6 6 6 7 8 8 4 4 6 6 9 7 5 5 3 5 6 4 5 6 4 5 4 4 5 5 4 3 3 4 4
11 12 12 11 10 11 9 8 10 10 10 9 11 15 13 12 12 13 14 7 4 6 5 10 15 21 25 28 34 28 13 3 15 26 26 27 27 22 21 21 19 20 23 25 26 21 15 16 17 9 8 10 9 11 13 13 11 12 9 6 9 9 9 6 6 8 9 10 6 5 6 3 6 5 2 4 1 4 4 3 2 2 4 4 3 3 3 4
12 12 12 11 10 9 7 6 8 9 8 5 9 12 11 11 11 12 17 15 5 8 6 4 5 5 8 13 23 20 8 6 21 25 22 23 27 24 21 20 18 23 24 21 16 13 13 16 11 6 10 9 7 10 14 15 13 10 9 7 7 8 8 8 9 10 10 9 7 10 9 4 5 6 3 3 4 6 4 3 3 2 4 5 4 3 4 5
12 12 12 12 11 9 7 6 5 6 7 6 8 9 8 9 9 10 15 20 15 7 7 3 1 4 4 2 8 11 6 13 22 22 21 22 26 27 26 25 23 26 25 18 12 10 8 7 4 6 11 9 8 7 5 9 6 4 9 8 8 8 7 9 9 9 8 4 7 12 8 3 3 3 3 3 5 6 6 5 3 2 3 4 5 4 4 2
11 12 13 13 11 11 11 9 6 6 7 7 8 9 10 9 10 10 13 19 21 18 13 10 5 6 13 10 9 10 7 17 20 18 19 20 24 30 31 30 27 28 26 23 20 17 14 13 12 13 12 7 6 5 4 9 7 7 12 10 10 10 5 8 8 7 6 2 5 11 5 1 2 2 2 5 6 4 6 6 4 1 4 5 5 3 1 5
11 12 13 13 14 14 13 11 10 9 8 8 9 11 13 13 13 12 13 14 16 19 20 24 23 26 33 25 13 8 9 17 20 19 18 19 24 29 31 30 27 27 24 21 21 19 24 25 20 12 7 5 8 10 9 11 11 10 14 12 9 9 6 6 7 6 5 2 5 10 7 4 6 4 1 7 5 4 4 6 6 4 5 4 3 3 8 9
11 12 13 14 15 14 13 12 10 9 8 7 8 11 14 15 13 11 11 10 11 11 9 11 14 22 36 28 9 5 10 18 20 18 17 17 22 25 26 28 28 26 25 22 18 13 17 15 14 10 4 6 9 9 5 7 10 8 11 12 7 7 7 5 2 3 3 3 5 5 6 5 6 2 5 7 4 5 4 4 6 5 3 3 3 5 8 6
11 12 12 15 17 18 19 18 16 13 8 5 5 7 10 13 13 11 11 11 14 17 17 14 9 18 26 13 6 11 13 18 19 16 17 17 18 21 24 26 25 27 30 29 24 20 18 17 22 16 5 6 6 7 7 4 7 5 6 8 4 5 6 6 3 0 3 3 5 4 3 4 5 6 8 6 4 6 4 3 4 3 3 4 3 4 3 3
11 11 11 16 22 25 25 24 24 21 17 11 4 3 5 8 10 11 14 13 13 14 18 18 15 24 23 4 3 15 14 16 19 18 20 19 16 19 23 25 25 27 31 33 30 30 28 29 30 15 4 6 7 9 9 3 4 3 3 3 3 3 2 6 3 2 3 1 2 6 3 4 6 7 8 5 3 3 3 3 3 3 4 3 1 2 2 3
11 10 10 17 22 22 20 17 18 20 23 21 12 4 1 3 6 10 15 16 14 11 12 15 13 15 13 3 4 15 16 17 22 23 21 19 18 16 17 21 25 24 28 30 28 29 30 29 23 10 5 7 7 8 5 3 4 3 3 3 5 4 1 7 3 2 1 0 5 6 3 4 5 7 8 4 2 2 2 2 1 3 3 2 2 2 1 1
9 9 10 14 16 15 11 10 13 13 16 22 25 19 7 4 6 9 11 13 15 14 14 15 13 12 8 2 6 13 16 18 21 21 17 16 18 16 13 15 20 21 23 24 22 22 24 23 12 5 6 6 6 6 4 5 4 4 4 2 2 3 1 3 2 3 1 1 5 4 3 2 5 6 8 5 3 2 1 1 2 2 2 3 4 3 2 2
8 7 8 9 9 6 3 7 11 11 9 12 23 30 26 16 7 7 3 2 8 14 19 17 11 14 8 4 6 9 11 16 19 19 16 14 17 18 17 12 9 13 17 19 21 17 16 12 4 3 6 4 3 3 5 5 3 4 4 3 1 2 2 1 2 5 6 4 3 5 3 4 6 6 7 6 2 2 2 3 4 2 2 3 3 3 3 4
7 6 5 4 4 4 7 9 10 10 7 4 7 18 29 30 23 18 13 5 2 7 15 20 12 10 6 7 6 8 12 14 16 20 17 12 13 18 20 13 6 7 8 11 16 12 8 6 4 3 5 6 6 6 5 2 1 1 2 3 2 1 2 1 1 3 6 6 3 5 4 4 7 6 6 6 1 1 4 5 4 3 3 3 3 3 4 5
7 5 2 2 5 7 9 9 9 8 6 3 0 3 9 17 27 35 36 26 12 5 5 11 9 6 1 5 7 10 10 11 12 20 22 15 10 13 18 16 9 8 6 5 8 7 4 5 6 5 5 6 5 4 2 3 3 3 3 5 4 2 2 1 3 3 3 6 4 3 3 4 6 6 6 7 2 2 4 5 3 3 3 4 2 2 4 5
7 6 4 4 4 6 6 5 7 6 5 3 2 3 2 4 11 16 22 23 13 8 8 1 3 7 2 4 9 10 7 10 14 21 28 20 9 9 14 12 9 10 7 3 4 6 4 7 5 3 4 6 6 5 3 3 4 5 5 5 4 3 1 3 3 5 1 4 3 1 4 5 6 7 7 6 3 1 4 5 5 4 4 5 4 4 5 5
9 7 6 8 7 5 5 4 6 6 3 4 6 5 2 2 7 2 3 11 10 11 12 5 7 9 3 2 10 10 3 10 20 26 30 20 7 7 9 8 8 8 5 3 2 4 6 8 4 4 5 5 5 5 1 4 5 6 6 5 3 3 0 3 2 6 3 3 2 1 3 4 6 7 7 5 3 4 5 5 5 6 5 5 5 6 6 5
10 8 6 8 9 8 6 7 11 13 13 15 17 13 6 7 13 10 5 7 7 11 11 7 9 7 3 5 12 10 2 9 16 21 28 20 9 6 4 6 9 4 5 5 2 5 8 6 5 7 4 1 5 6 7 8 7 5 4 5 3 2 2 4 4 6 4 3 2 1 2 5 7 6 7 6 5 5 6 6 6 6 5 5 5 6 6 6
11 9 7 7 9 9 8 8 10 14 18 22 22 17 12 14 16 11 6 7 3 7 7 6 7 6 5 7 13 11 7 7 5 13 24 18 7 5 3 7 9 4 6 7 3 5 5 3 6 6 3 6 7 9 8 8 6 4 3 4 1 1 1 1 4 6 5 2 1 2 1 4 6 5 6 6 5 5 5 5 6 5 6 7 6 6 6 6
12 10 8 6 7 9 10 10 10 14 20 25 24 18 16 14 11 8 5 5 3 3 3 2 3 4 4 6 13 9 5 4 1 8 20 12 3 3 4 6 7 7 6 6 8 9 5 3 4 5 7 7 7 9 9 6 4 3 3 4 2 1 1 2 3 5 4 3 3 4 4 4 4 4 6 5 4 5 4 4 6 5 5 6 5 6 6 6
13 11 9 6 5 7 9 10 11 16 19 20 19 16 13 10 6 5 4 5 4 2 2 2 2 4 4 8 13 5 3 4 2 6 13 9 3 1 3 3 4 4 1 3 10 9 4 4 3 6 7 7 8 7 6 2 3 3 2 3 3 1 1 3 4 4 4 4 2 3 3 4 4 4 7 5 5 6 5 5 7 7 6 5 6 7 7 6
14 12 11 8 4 5 6 5 9 13 11 11 13 11 9 7 5 4 4 5 4 3 4 3 2 6 6 9 11 2 4 4 2 7 13 10 5 2 3 2 2 3 5 3 6 4 3 6 6 6 5 6 7 5 1 2 4 2 0 4 4 3 2 4 5 3 2 2 1 3 3 3 4 4 7 4 4 7 6 5 7 6 5 5 5 6 6 6
15 13 11 10 7 3 3 4 9 9 4 6 10 8 6 6 5 3 3 6 4 2 4 4 2 6 5 6 7 2 4 3 2 9 14 12 7 3 5 4 2 2 2 3 4 2 3 6 8 7 5 5 5 3 1 2 5 1 1 4 4 4 3 2 4 2 1 2 3 3 4 1 3 5 6 3 3 6 7 6 6 5 4 5 5 6 6 6
16 16 12 10 9 6 5 9 11 6 4 9 10 6 4 3 1 2 5 5 2 1 2 3 2 4 4 6 9 5 2 2 2 6 12 13 11 5 7 4 3 2 2 4 4 1 2 5 6 5 4 5 2 1 3 2 5 1 3 3 2 3 3 2 4 2 1 2 4 5 3 1 4 5 4 3 2 6 6 5 6 5 4 5 5 6 5 5
16 17 13 9 8 8 7 8 7 5 9 12 8 5 2 2 2 3 6 3 1 1 0 2 3 4 5 6 8 5 3 3 3 5 9 12 12 8 7 2 5 6 6 6 5 2 1 1 1 2 4 3 3 5 3 2 3 2 3 2 2 3 3 3 5 2 3 4 3 5 3 1 4 5 3 2 2 5 6 6 6 5 6 6 6 6 6 5
15 17 15 9 5 5 5 6 6 8 11 11 7 4 2 2 4 6 5 1 0 2 1 2 2 4 6 6 6 6 6 4 2 5 6 6 9 8 5 1 5 8 7 8 6 1 2 1 2 3 3 2 4 3 2 1 2 3 4 4 3 4 4 3 3 3 4 3 5 5 1 2 2 4 3 3 4 5 4 4 6 6 6 6 6 6 5 5
14 18 17 12 8 4 3 5 7 9 9 9 7 4 3 3 5 6 3 0 0 2 3 3 3 4 7 5 4 6 6 5 6 6 6 5 7 8 5 2 3 5 5 6 5 3 5 5 1 1 1 1 1 1 2 3 2 3 4 3 3 2 4 3 4 4 3 3 5 4 0 3 1 5 4 4 5 4 5 5 6 6 6 6 6 6 5 6
13 17 18 15 11 7 5 5 6 9 9 9 6 4 4 3 5 3 0 3 1 1 2 1 2 3 4 3 4 5 4 5 5 5 4 4 5 5 4 1 1 3 3 2 3 4 3 2 3 3 2 3 3 1 2 5 4 4 3 4 4 2 4 3 3 2 1 5 3 2 2 1 4 6 5 5 7 6 6 6 6 6 6 6 6 6 5 5
11 16 18 16 12 9 8 7 7 9 9 8 5 4 6 5 2 1 2 2 0 1 1 1 2 2 2 4 4 4 3 3 4 5 3 2 4 2 2 1 1 1 1 2 1 3 2 4 5 4 2 2 4 3 1 3 3 4 2 3 4 3 3 2 4 2 3 5 3 1 2 1 4 5 5 6 7 7 6 6 6 6 6 6 6 6 6 6
9 14 18 17 15 10 8 7 8 10 8 5 4 5 7 5 1 1 1 2 1 2 1 1 2 3 4 4 2 3 3 2 3 4 3 3 4 3 4 4 4 2 2 3 1 2 2 3 4 3 2 3 4 2 2 0 2 1 2 4 4 4 3 2 3 2 3 5 4 3 1 2 3 3 5 7 6 5 4 5 4 5 5 5 5 5 5 5
7 13 18 18 16 12 7 7 9 9 5 4 6 7 6 2 3 2 2 4 2 1 1 1 3 5 5 3 2 1 2 0 3 4 4 4 2 2 3 4 5 4 3 2 0 2 3 2 3 2 1 2 3 0 2 2 0 1 1 3 2 3 4 3 3 4 2 3 4 2 2 4 3 4 4 2 4 6 5 6 6 6 6 4 5 6 5 5
4 9 17 19 16 12 7 6 7 5 3 5 7 5 3 3 3 3 2 1 2 2 2 2 4 5 2 4 3 3 1 1 2 4 3 2 1 1 1 2 3 3 2 2 1 1 2 1 3 3 2 2 0 1 1 1 1 1 2 2 1 2 6 5 1 1 4 1 3 2 3 4 3 3 4 5 5 6 6 6 6 7 7 5 5 6 5 5
2 5 11 17 16 10 6 5 5 3 3 7 7 3 1 2 2 2 1 1 1 2 4 2 1 2 1 1 3 4 3 1 1 3 2 1 1 1 2 2 1 2 1 2 1 1 3 1 3 1 1 2 1 1 1 0 2 2 2 2 2 3 4 4 2 3 5 1 4 3 3 5 3 2 5 5 5 7 7 6 6 7 6 5 6 6 6 6
2 3 6 15 16 9 6 3 3 3 5 8 6 2 1 0 1 2 1 0 1 2 5 3 1 0 2 2 1 4 2 1 2 3 1 0 1 0 0 2 0 2 3 2 1 0 2 1 3 0 1 3 3 2 2 3 0 1 1 2 2 2 0 1 2 1 2 1 5 5 4 3 2 3 4 4 5 6 7 6 6 7 7 6 7 7 7 6
2 2 3 13 14 8 6 2 1 4 7 6 3 2 1 0 1 1 2 1 1 3 3 2 1 2 1 2 1 3 1 1 1 2 2 1 1 1 2 1 1 2 4 2 2 1 1 2 2 2 1 3 4 3 0 3 3 2 2 2 1 2 3 1 2 2 2 1 3 5 5 3 5 5 4 6 7 6 6 5 5 7 8 6 6 6 6 6
2 2 1 11 14 7 6 6 5 7 7 4 3 2 1 1 1 2 2 1 0 1 1 2 3 2 1 1 1 1 2 2 2 2 1 1 1 1 1 1 1 4 5 3 3 0 2 2 2 4 3 1 1 1 2 2 1 2 3 3 1 1 1 1 1 2 4 3 2 1 4 5 5 4 6 7 7 7 7 6 6 7 7 7 7 6 6 6
3 3 1 11 16 6 4 9 8 6 4 3 2 2 1 1 1 2 2 1 0 1 1 3 3 3 3 2 0 1 1 2 2 2 1 1 2 1 1 2 1 2 4 3 3 1 1 2 1 2 3 0 2 1 2 4 3 2 0 1 1 1 2 2 3 3 2 2 4 3 3 8 6 3 5 6 6 7 7 6 6 7 7 7 7 7 7 6
4 3 2 11 17 6 5 8 4 3 4 2 1 1 1 2 2 1 1 0 1 1 1 3 3 3 3 2 1 1 2 2 1 1 1 1 1 1 1 1 2 1 1 1 1 1 1 3 2 2 3 2 3 2 2 3 3 4 1 1 2 2 3 4 2 4 0 0 1 3 1 7 6 4 5 5 5 5 5 5 5 7 7 7 7 8 7 6
3 1 2 12 15 4 7 7 3 4 4 1 1 1 2 2 2 0 1 1 0 0 2 2 1 2 1 1 2 2 2 1 1 0 1 1 0 1 1 1 1 2 2 1 1 0 1 3 2 3 4 3 3 1 2 2 3 2 2 1 2 1 2 4 4 2 1 2 2 3 2 7 6 3 4 4 3 4 5 4 5 6 7 7 7 7 6 6
2 2 2 11 12 2 5 4 2 2 1 0 2 2 1 1 2 1 0 0 0 1 2 1 1 1 1 2 3 2 1 0 1 0 1 2 1 1 1 3 2 1 1 1 1 0 0 1 2 2 4 6 6 4 3 2 1 1 2 1 2 3 5 3 2 3 1 4 5 4 4 7 5 3 3 3 4 5 6 5 5 5 6 7 6 6 6 6
2 0 2 8 13 9 5 4 6 5 3 3 4 1 1 2 1 1 1 0 0 1 2 1 0 2 3 3 4 2 1 1 1 0 1 1 1 2 2 3 2 1 2 2 1 1 1 2 2 3 2 1 2 3 3 2 1 1 1 2 3 4 6 3 1 3 2 4 4 5 6 6 6 5 4 5 5 6 8 7 5 6 6 7 6 6 5 5
2 2 2 6 10 9 4 1 5 7 5 5 4 1 2 2 1 1 2 1 0 1 2 1 1 3 3 3 4 3 2 1 1 2 2 1 2 2 2 3 1 1 2 2 1 3 3 1 1 5 5 5 5 5 4 1 2 2 2 3 5 4 5 5 3 2 4 2 3 7 6 6 11 9 6 6 6 6 8 8 7 6 6 6 6 6 6 5
2 2 1 2 4 5 4 4 5 5 4 4 4 2 4 3 1 1 1 1 0 1 2 2 1 2 2 3 4 2 1 2 2 2 2 2 1 2 3 2 1 2 2 1 1 3 3 1 1 4 6 6 6 6 4 1 3 6 5 5 7 6 5 6 5 5 4 3 5 7 3 4 11 10 7 8 8 8 8 8 8 7 6 7 6 6 6 6
2 2 1 0 0 2 3 2 3 6 5 4 3 2 4 3 2 2 1 1 1 0 1 1 1 3 5 5 4 3 2 1 2 1 2 2 1 1 3 1 0 2 3 1 2 2 4 2 2 3 5 8 6 5 4 3 4 5 6 7 7 8 9 10 10 7 7 5 8 5 2 6 12 11 11 11 9 8 9 8 7 7 7 8 7 6 7 6
2 3 0 2 1 3 1 2 4 7 6 4 3 2 5 6 5 4 1 2 1 2 1 2 4 4 4 3 4 4 4 2 1 3 3 3 2 1 0 1 1 2 3 2 2 1 3 2 2 2 5 8 7 4 4 5 4 4 7 9 8 9 12 12 10 7 7 10 12 8 7 13 15 13 13 13 9 6 7 7 6 7 8 7 6 7 7 6
2 2 1 3 4 2 1 2 4 5 4 3 2 2 4 7 7 4 2 4 2 2 2 3 5 5 4 3 5 2 5 5 3 4 5 5 2 3 2 2 2 2 3 1 1 2 0 2 1 3 3 7 5 2 2 4 5 6 8 7 7 7 9 10 8 6 6 9 11 8 9 15 14 9 9 10 7 4 5 7 6 7 7 7 7 7 7 6
2 2 3 5 3 1 1 2 3 4 2 0 3 4 4 6 8 5 2 1 3 4 5 5 6 5 3 2 3 1 4 5 3 2 5 6 3 2 1 1 4 3 1 1 0 1 1 0 1 4 3 6 4 2 3 3 2 6 10 8 9 8 6 6 6 5 7 7 4 3 6 10 8 4 4 6 5 4 6 7 6 7 7 6 7 8 7 7
3 1 1 5 3 1 0 1 2 3 3 2 3 4 3 5 7 6 3 1 1 2 3 6 7 5 3 3 4 3 3 5 4 2 4 5 5 4 3 3 6 5 3 3 1 1 2 2 1 2 1 6 5 3 4 5 3 4 8 7 10 9 6 5 4 6 9 7 4 5 7 7 4 3 4 4 4 5 6 6 5 7 8 7 7 8 7 7
Wind_Direction
31 35 40 49 58 69 80 89 91 86 78 60 54 66 74 73 69 67 70 80 204 231 221 212 199 184 180 143 98 48 37 48 48 29 21 3 357 5 10 16 22 28 54 75 84 84 61 53 51 57 55 45 22 332 23 26 20 44 63 73 85 97 80 159 153 146 123 130 127 106 96 110 125 178 137 79 42 57 62 45 35 38 44 80 112 96 86 89
32 37 43 49 55 64 74 83 88 93 86 63 58 69 77 78 76 71 65 54 43 307 239 227 216 207 204 190 183 56 32 41 40 21 7 4 8 16 20 24 29 34 63 71 72 80 72 42 57 61 48 34 5 353 29 11 24 55 88 81 72 96 41 76 114 114 113 128 120 95 62 85 119 159 107 79 33 35 59 30 12 37 12 13 125 129 116 78
31 36 42 47 51 55 64 74 85 96 88 69 61 64 68 71 72 68 62 49 38 25 248 229 220 217 216 214 221 219 337 29 38 9 354 6 12 17 27 37 43 54 76 75 75 83 86 81 73 70 57 49 14 26 48 5 21 42 74 83 78 103 71 62 89 94 109 120 106 86 64 58 52 25 75 109 77 40 48 12 15 52 346 308 267 229 227 271
31 34 39 43 47 47 55 68 80 93 83 72 64 58 59 58 59 48 27 40 41 49 66 192 207 211 213 212 216 203 259 33 35 343 350 7 11 20 39 52 64 78 87 87 87 87 86 79 73 69 68 57 25 54 47 10 57 41 51 89 111 107 78 61 86 93 96 101 100 96 84 71 37 33 68 139 87 34 12 316 115 124 216 254 263 263 259 268
30 33 35 39 43 43 52 68 73 78 70 73 68 52 50 52 52 43 28 44 61 65 69 73 97 144 172 206 215 216 316 55 351 337 356 8 14 26 48 61 76 89 97 102 95 85 80 72 70 61 57 52 28 56 37 12 84 78 48 77 96 97 92 76 83 92 94 93 91 84 83 96 100 42 25 88 97 134 261 226 178 176 201 217 240 254 251 257
28 29 32 35 39 41 51 72 69 64 76 84 65 42 41 48 48 42 35 64 125 82 76 76 79 84 88 100 114 99 76 93 316 340 1 10 19 32 55 68 76 88 105 102 85 79 73 64 70 66 61 67 54 67 59 23 67 96 58 54 66 81 97 89 68 83 94 90 80 82 104 119 96 65 9 68 105 202 226 211 184 173 196 208 215 203 216 227
25 23 29 33 37 39 47 77 73 65 83 89 50 31 38 47 48 42 34 41 172 177 116 84 80 80 78 77 78 74 77 87 329 348 5 13 26 38 60 74 78 87 92 85 80 83 80 74 80 88 84 79 70 80 83 60 61 90 90 72 73 80 90 92 87 83 85 92 95 101 97 75 89 98 15 44 81 239 230 222 223 213 208 203 203 191 209 222
24 22 28 33 30 29 41 87 83 63 68 58 20 22 40 44 46 50 42 42 84 169 169 113 93 73 53 62 70 65 62 353 342 357 10 18 33 42 63 73 75 84 79 74 90 100 86 83 93 99 80 88 110 101 95 78 57 74 102 101 87 85 91 95 90 85 85 95 106 89 79 80 106 115 80 10 298 278 273 266 270 240 197 195 205 202 217 231
26 25 29 28 23 31 60 91 83 50 37 25 17 25 45 44 48 62 52 46 58 115 172 175 26 5 42 100 81 65 15 342 348 3 14 19 36 48 61 63 69 79 70 63 88 103 85 82 98 102 104 115 115 110 106 88 66 88 110 111 106 98 99 97 88 94 98 104 104 88 81 102 120 109 53 309 276 295 307 297 281 190 182 215 223 217 230 271
30 30 31 30 42 64 79 82 68 54 44 45 45 47 59 61 65 74 64 57 64 81 95 93 102 109 93 88 81 74 340 348 5 11 17 24 42 52 54 54 64 74 68 60 68 85 94 103 110 107 111 107 89 82 62 95 123 133 110 102 104 104 101 98 98 105 97 86 103 100 105 61 355 83 62 282 276 329 336 316 308 204 216 248 260 263 29 44
38 38 39 48 68 79 79 75 68 67 65 64 67 70 72 73 73 72 68 62 68 87 93 82 84 90 77 67 76 77 348 1 16 15 22 34 45 47 46 49 58 66 71 65 62 90 109 116 122 112 102 99 88 75 67 104 124 125 111 94 84 92 74 76 109 130 100 98 123 109 102 35 10 57 172 265 287 358 353 312 307 270 256 290 331 47 77 73
48 48 53 70 79 80 76 72 69 68 65 65 80 83 74 68 66 59 54 52 60 84 99 75 75 78 67 61 67 41 6 13 17 24 34 42 48 46 45 49 54 62 74 71 57 91 122 126 116 97 110 135 107 85 94 123 116 119 111 99 91 85 59 26 97 158 102 148 186 114 68 7 355 341 259 269 299 354 358 302 293 292 310 29 63 82 89 85
58 59 68 87 88 85 83 77 72 68 60 61 88 93 75 65 62 56 54 65 78 78 74 75 86 80 70 62 34 26 19 21 24 41 45 44 56 56 51 52 60 68 75 75 67 77 96 99 97 96 102 117 111 110 128 123 100 106 91 97 99 55 35 356 353 45 74 142 197 124 57 316 291 272 267 277 324 354 347 295 310 350 66 100 101 93 103 97
65 69 87 104 102 96 88 80 72 65 59 58 75 109 83 65 59 62 65 71 83 84 79 78 83 78 74 100 33 26 19 33 39 38 32 35 53 58 54 58 71 75 74 76 73 77 86 87 88 91 63 74 106 109 106 78 64 83 64 59 44 64 14 319 333 54 82 127 103 100 113 266 268 274 274 277 348 6 296 293 17 71 106 121 124 124 139 97
68 76 104 119 116 107 95 79 66 60 58 57 57 63 59 68 74 82 80 73 68 74 86 78 77 79 73 97 36 16 20 37 32 20 16 23 32 32 39 60 73 76 73 71 73 78 81 79 75 73 45 45 79 94 82 35 29 48 73 9 5 84 245 300 314 65 129 225 35 73 137 262 263 266 272 275 21 27 261 296 62 128 134 163 191 172 169 131
70 81 116 134 129 117 97 59 39 42 56 59 60 62 63 85 112 115 92 73 59 60 73 69 72 86 85 60 360 8 22 18 7 10 16 20 21 15 27 64 74 75 74 65 70 75 65 67 68 57 58 32 47 83 61 38 13 9 76 91 10 89 95 315 327 358 358 151 17 40 144 229 268 263 274 289 12 42 139 245 254 176 145 182 199 201 208 243
73 89 121 145 146 128 41 2 3 10 37 67 66 65 68 72 122 165 166 85 56 57 61 48 62 88 70 6 3 1 356 350 356 12 19 20 22 27 39 60 59 66 76 55 51 52 35 45 63 38 55 36 30 78 69 42 351 357 47 89 102 125 124 2 315 347 24 80 30 29 107 202 256 268 278 291 354 66 154 211 247 226 179 206 209 214 227 250
76 99 126 165 200 261 308 315 325 344 4 60 75 71 70 67 77 76 54 73 65 32 45 25 32 87 42 1 359 317 321 340 360 13 17 20 24 34 43 45 23 39 64 34 31 31 14 31 65 60 33 19 20 40 76 119 186 121 98 107 92 80 91 71 281 328 26 60 61 54 82 218 259 279 278 282 309 138 222 223 233 229 211 220 212 212 232 251
71 84 108 243 267 283 295 300 312 320 323 345 191 140 78 58 63 56 46 56 58 32 50 359 9 100 30 333 321 314 335 358 10 15 16 11 10 31 38 38 42 49 47 16 13 12 22 47 45 49 12 356 356 10 99 167 136 126 155 124 113 92 51 296 276 284 96 76 46 92 132 212 246 266 263 273 279 172 259 270 261 250 240 245 238 221 238 254
58 62 48 5 330 312 318 315 319 316 306 296 212 167 133 28 50 39 31 51 63 76 106 339 31 85 50 317 329 339 360 25 31 19 12 5 351 18 21 19 42 54 42 13 4 355 46 71 46 19 327 313 309 305 247 193 107 97 105 92 93 105 34 300 293 301 109 91 347 122 151 213 232 246 248 264 295 282 274 280 273 262 254 250 240 243 249 253
46 50 42 28 22 13 25 23 6 17 59 127 140 109 105 96 87 122 355 61 62 69 88 82 77 80 57 352 356 356 356 31 28 15 11 7 355 21 4 2 45 48 4 334 17 4 51 72 27 307 273 283 324 333 71 110 92 88 101 97 61 84 304 283 274 308 358 95 317 36 138 241 246 246 253 261 272 263 247 245 252 243 247 254 243 248 255 265
39 41 43 36 37 42 55 64 65 80 98 104 101 93 104 118 114 138 144 88 42 41 72 72 69 67 35 34 13 8 55 33 17 4 8 11 25 47 1 30 65 63 337 355 47 34 50 57 338 309 272 177 30 22 65 82 80 69 87 109 68 43 282 296 304 323 5 84 286 280 165 263 264 254 263 251 226 243 233 214 217 213 231 253 246 247 260 280
38 38 42 40 43 51 68 86 91 96 98 97 95 97 111 113 119 131 105 97 52 12 37 44 54 34 14 31 13 16 55 43 5 345 357 6 36 61 55 58 69 73 25 29 79 90 70 8 325 336 29 83 57 27 50 69 63 52 63 99 99 355 52 320 313 327 347 58 148 161 116 296 289 294 281 254 235 265 262 235 234 216 222 240 246 249 253 266
39 39 40 46 56 62 78 98 109 99 94 98 99 106 121 119 123 131 93 83 76 9 21 40 82 56 34 12 359 13 64 56 102 339 353 10 61 46 72 88 74 63 51 56 80 88 87 306 325 31 43 66 74 37 39 64 49 20 54 98 110 11 56 222 291 331 341 8 79 91 36 316 291 301 282 282 296 285 303 307 278 261 249 263 284 273 254 251
37 40 41 50 74 83 93 103 106 101 95 97 102 113 122 120 132 134 98 60 36 329 348 34 58 41 22 358 355 4 105 48 52 341 351 20 47 38 74 97 77 65 218 87 74 78 62 334 16 59 37 48 80 54 24 83 91 7 24 118 139 125 341 313 339 9 21 356 8 85 41 301 294 288 263 291 321 283 315 331 283 276 285 293 294 279 270 266
34 38 43 48 77 119 113 102 109 108 95 92 109 125 121 111 126 134 104 65 35 328 355 5 9 14 356 350 347 346 71 15 341 12 11 18 16 104 79 355 60 118 204 129 77 91 37 2 40 73 61 51 72 74 4 134 109 27 340 136 134 108 54 13 20 41 50 302 300 90 114 261 309 295 256 280 316 288 308 315 283 282 286 281 274 269 273 275
32 33 40 47 60 111 155 143 140 130 100 123 131 124 117 109 101 91 69 50 22 337 2 340 343 11 346 344 353 74 75 321 304 25 20 19 6 69 72 8 37 63 213 101 62 51 26 9 25 45 59 60 63 58 315 131 109 64 230 126 98 70 63 55 68 76 239 263 315 34 104 172 297 271 259 292 305 295 313 312 307 315 292 276 268 261 258 253
32 30 35 47 57 76 121 142 149 144 136 154 146 119 113 104 71 55 77 69 358 359 26 320 338 5 336 360 24 75 112 322 64 359 357 27 27 55 75 56 106 49 347 106 105 9 33 18 12 22 43 49 54 286 271 123 99 221 216 144 106 97 114 104 75 57 340 28 323 322 48 86 273 273 302 345 281 284 297 278 279 295 285 276 269 267 262 249
33 30 32 41 60 76 103 137 145 142 150 156 146 129 128 56 36 53 74 99 323 356 161 323 350 341 342 6 17 36 21 23 81 325 342 31 31 52 83 94 121 86 39 81 122 170 95 64 169 103 60 18 265 257 257 108 89 198 171 100 56 75 83 73 66 51 31 46 279 286 26 75 272 284 311 341 257 259 267 257 252 258 270 270 266 269 269 268
32 29 30 36 60 81 97 111 116 134 152 157 151 147 145 52 60 59 51 104 355 329 281 10 358 336 14 26 357 7 27 16 357 350 4 23 13 35 72 119 97 82 48 54 79 140 325 338 167 112 73 274 249 265 289 115 131 136 102 56 41 31 35 52 51 69 56 353 261 254 78 97 298 285 240 221 220 209 209 250 263 266 275 271 260 263 266 271
31 27 27 35 50 69 95 97 112 139 149 153 155 137 101 45 61 86 81 275 157 333 1 18 348 1 32 47 3 359 21 360 345 17 27 7 4 20 30 22 55 56 34 31 40 8 354 7 350 285 316 358 34 29 6 5 39 93 81 71 88 354 9 28 355 35 69 281 265 267 340 119 232 271 244 240 247 210 179 210 241 253 265 266 265 270 266 268
32 27 26 34 44 54 83 109 129 142 145 146 141 93 85 43 28 89 252 335 353 304 29 356 315 16 26 41 27 349 352 358 5 44 49 23 34 29 22 40 189 30 24 1 15 12 4 352 322 308 308 45 67 95 355 359 28 65 64 73 89 351 7 15 321 358 225 252 259 338 355 148 228 250 242 245 249 230 206 206 211 224 242 256 269 278 281 286
35 29 29 35 42 54 78 101 127 138 145 143 114 55 77 76 47 192 269 340 57 276 76 35 326 40 38 37 17 334 1 10 1 39 57 75 67 25 343 30 110 91 121 148 47 23 355 315 340 360 337 36 82 106 10 344 17 52 92 103 100 81 48 324 289 326 287 274 274 315 350 289 277 274 231 225 236 231 225 223 218 215 226 248 265 277 290 296
41 33 32 37 42 50 74 97 122 134 138 124 78 47 66 78 171 192 282 248 229 343 47 73 359 32 44 51 341 320 48 30 357 42 32 40 53 4 330 356 22 62 101 91 84 93 74 320 339 21 339 19 54 94 126 104 355 339 188 130 114 135 132 202 243 242 271 290 296 300 318 203 252 288 235 227 257 276 271 267 267 257 249 263 286 292 292 290
49 38 33 35 38 43 69 105 124 131 127 85 63 61 80 126 214 160 200 228 218 8 19 34 59 51 16 360 337 346 109 5 22 54 32 40 71 1 344 331 351 33 74 84 85 85 80 277 289 324 305 45 31 317 126 112 32 269 183 80 86 169 141 138 179 181 196 310 303 278 237 211 217 273 275 289 316 317 313 311 310 289 284 317 319 293 285 281
57 41 33 30 30 34 59 110 131 128 102 78 66 60 114 192 197 159 178 178 142 150 128 39 56 71 358 329 350 3 30 333 36 55 26 44 142 289 347 283 324 30 75 112 118 80 87 266 297 333 347 53 29 231 114 135 209 30 56 96 173 146 117 114 161 71 72 43 289 281 265 292 327 304 315 358 335 313 316 314 299 280 294 326 300 273 274 270
63 63 37 25 22 28 53 108 130 108 74 78 79 93 176 210 166 163 196 54 149 127 107 102 33 79 187 323 330 323 354 350 35 59 34 21 67 332 338 301 302 48 56 104 128 139 122 202 298 12 61 321 292 154 42 204 163 60 53 196 174 88 91 102 103 8 36 40 282 322 290 297 341 313 313 338 309 291 294 296 299 298 301 296 274 270 272 267
64 106 49 19 14 25 48 92 125 83 73 71 76 127 167 225 170 174 188 85 143 82 90 135 142 69 192 138 309 295 345 4 1 53 86 45 48 124 4 317 299 54 12 35 85 29 105 138 298 348 157 308 353 68 333 321 118 111 154 205 125 99 77 49 89 78 28 319 289 314 312 275 221 233 277 272 246 258 276 292 302 290 281 273 273 279 282 282
56 100 40 7 8 23 28 26 112 61 68 75 93 156 144 168 246 220 177 125 103 99 96 171 158 62 149 140 178 274 359 70 66 72 124 129 43 128 109 4 292 1 354 36 107 276 48 104 276 276 208 300 355 56 240 314 327 355 22 345 21 123 165 132 81 147 154 211 285 318 332 282 230 217 202 216 225 228 253 282 283 266 264 266 264 271 279 282
64 71 352 358 7 12 13 33 57 51 62 96 150 162 78 189 253 278 212 191 124 135 131 178 159 99 130 178 197 259 33 82 119 93 105 117 99 122 64 57 309 319 330 20 81 326 12 86 250 294 338 324 319 65 158 177 322 2 9 342 332 21 92 134 13 102 129 148 175 320 314 275 252 211 179 202 222 216 218 239 258 264 267 266 260 262 268 269
70 53 279 354 2 345 11 45 48 49 79 100 112 117 71 137 161 325 275 218 160 244 175 148 143 128 145 146 146 209 53 54 82 93 134 154 102 104 3 100 142 300 326 28 49 10 30 101 218 293 337 275 231 259 154 155 160 141 304 286 157 91 80 86 317 321 89 144 165 155 273 273 260 205 187 198 205 216 217 214 244 269 271 271 270 260 256 260
71 58 263 346 355 350 64 55 30 51 90 98 78 119 71 97 110 22 326 61 106 268 48 93 110 110 133 131 115 161 107 67 12 62 150 232 154 160 161 119 171 206 103 82 345 313 123 98 82 257 249 233 250 276 99 121 139 140 191 269 105 108 108 109 271 278 45 61 140 115 240 271 262 211 209 217 210 228 232 208 234 272 275 271 275 271 264 259
82 137 255 345 346 357 84 60 357 31 59 211 293 17 15 70 112 107 349 24 51 65 42 42 96 100 133 158 121 127 118 118 182 140 201 227 198 199 182 54 228 181 118 141 236 296 76 81 50 296 290 319 323 332 65 57 75 112 249 241 119 115 115 135 182 194 156 210 157 93 269 268 272 242 223 234 243 268 270 229 232 272 285 274 268 272 271 267
113 210 258 354 354 40 107 93 130 78 64 183 51 30 352 42 105 100 45 348 32 117 97 109 221 99 122 112 96 119 173 117 151 225 182 161 149 299 344 2 328 184 162 208 161 175 306 99 77 10 353 347 346 350 347 346 64 193 243 199 146 116 101 129 165 86 358 231 162 136 244 254 274 308 299 309 337 316 291 260 237 260 280 276 267 266 266 270
69 225 268 359 27 65 106 153 143 132 152 118 88 96 62 49 80 152 166 174 124 155 131 131 118 91 102 95 75 70 38 65 188 295 76 128 284 308 338 346 340 173 221 264 151 138 167 152 121 103 96 325 299 296 289 278 244 239 213 174 173 142 134 160 120 79 276 247 157 167 230 260 287 302 302 314 334 316 292 286 274 259 256 261 265 267 267 270
80 63 307 346 25 55 71 108 104 117 155 138 110 143 113 86 302 236 148 123 21 142 97 70 132 90 75 85 79 55 7 18 96 120 129 198 256 271 301 334 12 175 234 252 77 92 109 139 165 156 175 194 201 227 236 164 162 216 207 193 193 174 145 128 107 159 203 185 199 225 235 287 292 285 282 292 298 287 285 295 296 282 269 266 264 266 271 269
87 105 60 338 358 41 49 24 61 101 154 144 123 157 147 134 316 344 142 230 204 130 61 48 137 137 143 138 115 107 312 358 22 102 146 197 228 278 295 323 40 325 297 257 31 85 97 313 248 173 217 232 214 226 231 170 211 213 202 203 202 187 151 145 184 209 162 122 264 258 213 257 277 282 289 291 291 287 288 292 289 285 285 283 279 282 285 281
57 135 137 107 355 69 58 45 88 94 94 99 95 120 137 141 163 175 197 333 20 172 110 76 258 218 189 170 135 132 144 22 346 186 154 177 185 356 327 291 252 350 15 14 326 94 117 245 232 179 261 264 248 245 219 201 239 224 205 212 204 184 180 195 215 203 159 190 253 270 135 233 264 283 290 285 281 278 278 281 284 288 285 282 287 291 284 281
69 107 38 3 101 155 134 77 106 98 87 87 89 130 158 165 183 203 181 84 2 292 163 185 244 223 190 165 116 134 179 166 245 232 186 160 172 142 38 248 235 25 57 55 333 64 130 229 203 165 290 287 279 272 210 196 236 253 231 223 209 196 200 212 226 208 194 236 261 283 295 277 273 272 273 278 278 269 273 282 283 282 279 279 283 281 275 273
118 147 170 52 66 115 74 55 89 90 69 75 109 158 169 165 179 209 170 127 160 224 181 204 216 177 147 133 111 141 219 177 157 217 178 142 170 197 190 197 163 63 45 68 334 348 307 267 159 107 323 298 292 302 181 190 212 245 253 233 210 213 219 228 240 225 217 251 267 282 287 280 276 261 254 272 290 297 288 287 279 272 275 285 285 275 270 270
83 133 140 105 73 356 358 42 84 102 98 133 150 165 183 189 187 171 129 161 173 176 187 192 174 134 86 115 132 255 244 174 153 218 166 137 149 185 186 162 142 125 85 131 332 6 96 266 24 60 2 289 284 4 329 302 253 261 274 249 208 205 214 222 227 205 200 220 248 282 268 260 270 285 260 266 289 293 274 277 287 288 283 276 270 268 268 267
70 49 78 101 89 332 121 77 54 117 185 226 166 164 190 209 192 151 114 208 155 133 204 181 150 114 86 154 197 244 213 158 134 107 119 107 89 89 78 79 101 120 159 149 100 23 112 119 124 73 333 270 284 328 309 326 353 288 269 223 188 193 212 233 251 224 204 187 184 227 235 232 250 300 284 275 286 282 271 263 268 283 285 272 258 259 265 265